Flag for Saudi Arabia Weather past 2 weeks in Riyadh, Saudi Arabia

Now
99 °F

Clear.


Feels Like: 94 °F
Forecast: 86 / 108 °F
Wind: 12 mph from Northwest

Location: King Khaled International Airport

Current Time: Jul 29, 2014 at 8:52:28 PM

Latest Report: Jul 29, 2014 at 8:00 PM


Visibility: 4 mi

Pressure: 29.65 "Hg

Humidity: 11%

Dew point: 36 °F

Location of RiyadhLocation

Historic Weather in Riyadh — Graph

°F

Riyadh temperature yesterday

Maximum temperature yesterday: 109 °F (at 2:00 PM)
Minimum temperature yesterday: 82 °F (at 5:00 AM)
Average temperature yesterday: 97 °F

Past Weeks' High & Low Weather Summary

 TemperatureHumidityPressure
High111 °F (Jul 18, 3:00 PM)20% (Jul 23, 6:00 AM)29.86 "Hg (Jul 23, 6:00 AM)
Low81 °F (Jul 15, 6:00 AM)5% (Jul 15, 4:00 PM)29.59 "Hg (Jul 18, 4:00 PM)
Average97 °F10%29.70 "Hg
* Reported Jul 14 8:00 PM — Jul 29 8:00 PM, Riyadh, Weather by CustomWeather, © 2014

Note: Actual official high and low records may vary slightly from our data, if they occured in-between our weather recording intervals... More about our weather records

Advertising

Riyadh weather history for previous 24 hours

 ConditionsComfort  
Time TempWeatherWind HumidityBarometerVisibility
8:00 PM
Jul 29
99 °FClear.12 mph11%29.65 "Hg4 mi
7:00 PM102 °FClear.14 mph9%29.65 "Hg4 mi
6:00 PM104 °FSunny.18 mph9%29.62 "Hg4 mi
5:00 PM106 °FSunny.16 mph8%29.62 "Hg10 mi
4:00 PM108 °FSunny.17 mph7%29.62 "Hg10 mi
3:00 PM108 °FSunny.22 mph8%29.65 "Hg10 mi
2:00 PM106 °FSunny.14 mph9%29.68 "Hg10 mi
1:00 PM106 °FSunny.12 mph9%29.68 "Hg10 mi
12:00 PM104 °FSunny.12 mph10%29.71 "Hg10 mi
11:00 AM104 °FSunny.12 mph10%29.74 "Hg10 mi
10:00 AM102 °FSunny.9 mph11%29.74 "Hg10 mi
9:00 AM97 °FSunny.7 mph12%29.74 "Hg10 mi
8:00 AM93 °FSunny.8 mph14%29.74 "Hg10 mi
7:00 AM86 °FSunny.3 mph18%29.74 "Hg10 mi
6:00 AM84 °FSunny.5 mph19%29.71 "Hg10 mi
5:00 AM86 °FClear.8 mph18%29.71 "Hg10 mi
4:00 AM86 °FClear.8 mph17%29.71 "Hg10 mi
3:00 AM86 °FClear.5 mph17%29.68 "Hg10 mi
2:00 AM88 °FClear.7 mph17%29.71 "Hg10 mi
1:00 AM88 °FClear.5 mph16%29.71 "Hg10 mi
12:00 AM90 °FClear.5 mph15%29.71 "Hg10 mi
11:00 PM
Jul 28
93 °FClear.3 mph14%29.74 "Hg10 mi
10:00 PM97 °FClear.7 mph13%29.74 "Hg10 mi
9:00 PM99 °FClear.9 mph12%29.74 "Hg10 mi
8:00 PM100 °FClear.12 mph11%29.74 "Hg10 mi
Weather by CustomWeather, © 2014

See weather overviewHow to use our weather pages